カタログに戻る

DELTA 1 DEB

運用中LEO
NORAD 7186·DEBRIS·🇺🇸 United States

打ち上げ Nov 6, 1973 から Vandenberg Space Force Base

Loading…

次のパス (今後24時間)

TLE

最新Source: Space-Track

元期: Sep 14, 2026, 10:49 UTC

1 07186U 73086EX  26257.45119056 -.00000128  00000-0 -21767-3 0  9998
2 07186 101.8041  71.1378 0224333  21.4389   7.0072 13.01787714490019

AllMySatでDELTA 1 DEBをリアルタイム追跡

Download on the App Store